| time (UTC) | temp F | wind direction | speed MPH | gust MPH | rain 1hr in | rain 24hr in | rain mn in | humidity % | barometer mb |
| 20260831170720 | 64 | 163 | 2.0 | 3.0 | 0.07 | 0.15 | 0.15 | 96 | 1020.6 |
| 20260831170216 | 64 | 204 | 3.0 | 4.0 | 0.05 | 0.14 | 0.14 | 96 | 1020.5 |
| 20260831165712 | 64 | 143 | 1.0 | 4.0 | 0.05 | 0.14 | 0.14 | 96 | 1020.4 |
| 20260831165209 | 64 | 172 | 0.0 | 4.0 | 0.07 | 0.13 | 0.13 | 96 | 1020.5 |
| 20260831164704 | 64 | 185 | 1.0 | 4.0 | 0.05 | 0.13 | 0.13 | 96 | 1020.4 |
| 20260831164200 | 64 | 160 | 1.0 | 5.0 | 0.05 | 0.12 | 0.12 | 96 | 1020.6 |
| 20260831163655 | 65 | 230 | 1.0 | 3.0 | 0.05 | 0.12 | 0.12 | 96 | 1020.7 |
| 20260831163151 | 65 | 202 | 0.0 | 3.0 | 0.07 | 0.11 | 0.11 | 96 | 1020.5 |
| 20260831162649 | 65 | 119 | 0.0 | 3.0 | 0.17 | 0.11 | 0.11 | 95 | 1020.6 |
| 20260831162148 | 65 | 126 | 2.0 | 3.0 | 0.24 | 0.10 | 0.10 | 95 | 1020.6 |
| 20260831161643 | 65 | 128 | 0.0 | 2.0 | 0.35 | 0.07 | 0.07 | 94 | 1020.7 |
| 20260831161140 | 65 | 138 | 0.0 | 2.0 | 0.35 | 0.06 | 0.06 | 93 | 1020.8 |
| 20260831160639 | 66 | 141 | 0.0 | 1.0 | 0.14 | 0.02 | 0.02 | 92 | 1020.9 |
| 20260831160134 | 66 | 130 | 0.0 | 1.0 | 0.00 | 0.00 | 0.00 | 91 | 1020.8 |
| 20260831155634 | 65 | 309 | 0.0 | 1.0 | 0.00 | 0.00 | 0.00 | 90 | 1020.8 |
| 20260831155129 | 66 | 89 | 0.0 | 0.0 | 0.00 | 0.00 | 0.00 | 90 | 1020.8 |
| 20260831154625 | 66 | 89 | 0.0 | 2.0 | 0.00 | 0.00 | 0.00 | 89 | 1020.6 |
| 20260831154120 | 66 | 176 | 0.0 | 2.0 | 0.00 | 0.00 | 0.00 | 89 | 1020.6 |
| 20260831153619 | 66 | 145 | 1.0 | 2.0 | 0.00 | 0.00 | 0.00 | 88 | 1020.5 |
| 20260831153116 | 66 | 180 | 0.0 | 3.0 | 0.00 | 0.00 | 0.00 | 88 | 1020.7 |
| 20260831152611 | 66 | 124 | 1.0 | 3.0 | 0.00 | 0.00 | 0.00 | 88 | 1020.6 |
| 20260831152107 | 66 | 109 | 2.0 | 3.0 | 0.00 | 0.00 | 0.00 | 88 | 1020.5 |
| 20260831151606 | 66 | 224 | 1.0 | 6.0 | 0.00 | 0.00 | 0.00 | 88 | 1020.6 |
| 20260831151101 | 66 | 192 | 2.0 | 4.0 | 0.00 | 0.00 | 0.00 | 88 | 1020.5 |
| 20260831150556 | 66 | 176 | 0.0 | 3.0 | 0.00 | 0.00 | 0.00 | 87 | 1020.5 |
| 20260831150052 | 66 | 183 | 3.0 | 4.0 | 0.00 | 0.00 | 0.00 | 87 | 1020.5 |
| 20260831145546 | 66 | 260 | 0.0 | 5.0 | 0.00 | 0.00 | 0.00 | 88 | 1020.4 |
| 20260831145042 | 66 | 199 | 0.0 | 4.0 | 0.00 | 0.00 | 0.00 | 88 | 1020.5 |
| 20260831144537 | 66 | 193 | 0.0 | 3.0 | 0.00 | 0.00 | 0.00 | 88 | 1020.3 |
| 20260831144033 | 66 | 122 | 0.0 | 5.0 | 0.00 | 0.00 | 0.00 | 89 | 1020.4 |
| 20260831143527 | 66 | 260 | 1.0 | 3.0 | 0.00 | 0.00 | 0.00 | 89 | 1020.6 |
| 20260831143023 | 66 | 57 | 0.0 | 2.0 | 0.00 | 0.00 | 0.00 | 88 | 1020.5 |
| 20260831142520 | 66 | 142 | 2.0 | 6.0 | 0.00 | 0.00 | 0.00 | 88 | 1020.5 |
| 20260831142015 | 66 | 161 | 1.0 | 4.0 | 0.00 | 0.00 | 0.00 | 88 | 1020.4 |
| 20260831141513 | 66 | 266 | 0.0 | 4.0 | 0.00 | 0.00 | 0.00 | 88 | 1020.4 |
| 20260831141008 | 66 | 167 | 1.0 | 5.0 | 0.00 | 0.00 | 0.00 | 88 | 1020.4 |
| 20260831140503 | 66 | 167 | 2.0 | 3.0 | 0.00 | 0.00 | 0.00 | 88 | 1020.4 |
| 20260831140002 | 66 | 167 | 2.0 | 3.0 | 0.00 | 0.00 | 0.00 | 88 | 1020.4 |
| 20260831135500 | 66 | 192 | 2.0 | 4.0 | 0.00 | 0.00 | 0.00 | 88 | 1020.4 |
| 20260831134955 | 66 | 139 | 2.0 | 4.0 | 0.00 | 0.00 | 0.00 | 89 | 1020.4 |
| 20260831134452 | 66 | 164 | 0.0 | 4.0 | 0.00 | 0.00 | 0.00 | 89 | 1020.3 |
| 20260831133951 | 66 | 185 | 0.0 | 5.0 | 0.00 | 0.00 | 0.00 | 88 | 1020.5 |
| 20260831133446 | 66 | 149 | 3.0 | 4.0 | 0.00 | 0.00 | 0.00 | 88 | 1020.6 |
| 20260831132941 | 66 | 216 | 2.0 | 3.0 | 0.00 | 0.00 | 0.00 | 89 | 1020.6 |
| 20260831132437 | 66 | 184 | 3.0 | 3.0 | 0.00 | 0.00 | 0.00 | 89 | 1020.7 |
| 20260831131936 | 65 | 189 | 2.0 | 4.0 | 0.00 | 0.00 | 0.00 | 90 | 1020.8 |
| 20260831131431 | 65 | 160 | 0.0 | 3.0 | 0.00 | 0.00 | 0.00 | 91 | 1020.7 |
| 20260831130927 | 65 | 129 | 0.0 | 2.0 | 0.00 | 0.00 | 0.00 | 92 | 1020.7 |
| 20260831130422 | 64 | 151 | 3.0 | 5.0 | 0.00 | 0.00 | 0.00 | 92 | 1020.8 |
| 20260831125921 | 64 | 145 | 0.0 | 2.0 | 0.00 | 0.00 | 0.00 | 95 | 1020.7 |
| 20260831125416 | 64 | 116 | 3.0 | 4.0 | 0.00 | 0.00 | 0.00 | 96 | 1020.9 |
| 20260831124912 | 63 | 142 | 2.0 | 3.0 | 0.00 | 0.00 | 0.00 | 96 | 1020.7 |
| 20260831124408 | 63 | 142 | 2.0 | 3.0 | 0.00 | 0.00 | 0.00 | 96 | 1020.6 |
| 20260831123908 | 63 | 137 | 1.0 | 2.0 | 0.00 | 0.00 | 0.00 | 96 | 1020.8 |
| 20260831123407 | 62 | 109 | 1.0 | 2.0 | 0.00 | 0.00 | 0.00 | 96 | 1020.6 |
| 20260831122902 | 62 | 144 | 1.0 | 3.0 | 0.00 | 0.00 | 0.00 | 96 | 1020.6 |
| 20260831122357 | 62 | 147 | 1.0 | 2.0 | 0.00 | 0.00 | 0.00 | 96 | 1020.5 |
| 20260831121852 | 61 | 50 | 0.0 | 1.0 | 0.00 | 0.00 | 0.00 | 96 | 1020.6 |
| 20260831121348 | 61 | 76 | 0.0 | 1.0 | 0.00 | 0.00 | 0.00 | 96 | 1021.0 |
| 20260831120844 | 61 | 19 | 0.0 | 2.0 | 0.00 | 0.00 | 0.00 | 96 | 1020.8 |
| 20260831120338 | 61 | 224 | 0.0 | 2.0 | 0.00 | 0.00 | 0.00 | 96 | 1020.9 |
| 20260831115833 | 61 | 89 | 0.0 | 1.0 | 0.00 | 0.00 | 0.00 | 96 | 1020.9 |
| 20260831115330 | 61 | 119 | 0.0 | 1.0 | 0.00 | 0.00 | 0.00 | 96 | 1020.9 |
| 20260831114829 | 60 | 276 | 0.0 | 1.0 | 0.00 | 0.00 | 0.00 | 96 | 1020.9 |
| 20260831114327 | 60 | 6 | 0.0 | 1.0 | 0.00 | 0.00 | 0.00 | 96 | 1020.8 |
| 20260831113824 | 60 | 89 | 0.0 | 1.0 | 0.00 | 0.00 | 0.00 | 96 | 1020.9 |
| 20260831113323 | 60 | 94 | 1.0 | 2.0 | 0.00 | 0.00 | 0.00 | 96 | 1020.7 |
| 20260831112818 | 60 | 72 | 0.0 | 2.0 | 0.00 | 0.00 | 0.00 | 96 | 1020.5 |
| 20260831112313 | 60 | 142 | 0.0 | 1.0 | 0.00 | 0.00 | 0.00 | 96 | 1020.7 |
| 20260831111808 | 59 | 89 | 1.0 | 2.0 | 0.00 | 0.00 | 0.00 | 96 | 1020.6 |
| 20260831111305 | 59 | 96 | 1.0 | 2.0 | 0.00 | 0.00 | 0.00 | 96 | 1020.8 |
| 20260831110801 | 59 | 212 | 0.0 | 2.0 | 0.00 | 0.00 | 0.00 | 96 | 1020.8 |
| 20260831110255 | 59 | 224 | 0.0 | 2.0 | 0.00 | 0.00 | 0.00 | 96 | 1020.4 |
| 20260831105753 | 59 | 147 | 0.0 | 2.0 | 0.00 | 0.00 | 0.00 | 96 | 1020.1 |
| 20260831105250 | 59 | 106 | 0.0 | 2.0 | 0.00 | 0.00 | 0.00 | 96 | 1020.2 |
| 20260831104749 | 59 | 87 | 0.0 | 2.0 | 0.00 | 0.00 | 0.00 | 96 | 1020.0 |
| 20260831104246 | 59 | 60 | 0.0 | 2.0 | 0.00 | 0.00 | 0.00 | 96 | 1020.2 |
| 20260831103746 | 59 | 256 | 0.0 | 2.0 | 0.00 | 0.00 | 0.00 | 96 | 1020.1 |
| 20260831103242 | 59 | 29 | 0.0 | 2.0 | 0.00 | 0.00 | 0.00 | 96 | 1020.0 |
| 20260831102742 | 59 | 134 | 0.0 | 2.0 | 0.00 | 0.00 | 0.00 | 96 | 1019.9 |
| 20260831102236 | 59 | 124 | 0.0 | 2.0 | 0.00 | 0.00 | 0.00 | 96 | 1019.9 |
| 20260831101732 | 58 | 224 | 0.0 | 1.0 | 0.00 | 0.00 | 0.00 | 96 | 1020.1 |
| 20260831101228 | 58 | 124 | 0.0 | 1.0 | 0.00 | 0.00 | 0.00 | 96 | 1020.1 |
| 20260831100724 | 58 | 111 | 0.0 | 1.0 | 0.00 | 0.00 | 0.00 | 96 | 1020.2 |
| 20260831100219 | 58 | 82 | 0.0 | 2.0 | 0.00 | 0.00 | 0.00 | 96 | 1020.2 |
| 20260831095718 | 58 | 30 | 0.0 | 2.0 | 0.00 | 0.00 | 0.00 | 96 | 1020.1 |
| 20260831095213 | 58 | 37 | 0.0 | 1.0 | 0.00 | 0.00 | 0.00 | 96 | 1020.3 |
| 20260831094708 | 59 | 37 | 0.0 | 2.0 | 0.00 | 0.00 | 0.00 | 96 | 1020.2 |
| 20260831094204 | 58 | 122 | 1.0 | 2.0 | 0.00 | 0.00 | 0.00 | 96 | 1020.3 |
| 20260831093700 | 58 | 129 | 0.0 | 1.0 | 0.00 | 0.00 | 0.00 | 96 | 1020.2 |
| 20260831093155 | 58 | 116 | 0.0 | 2.0 | 0.00 | 0.00 | 0.00 | 96 | 1020.2 |
| 20260831092651 | 58 | 143 | 2.0 | 2.0 | 0.00 | 0.00 | 0.00 | 96 | 1020.1 |
| 20260831092147 | 58 | 112 | 1.0 | 2.0 | 0.00 | 0.00 | 0.00 | 96 | 1020.1 |
| 20260831091646 | 58 | 142 | 1.0 | 3.0 | 0.00 | 0.00 | 0.00 | 96 | 1020.3 |
| 20260831091142 | 57 | 115 | 2.0 | 2.0 | 0.00 | 0.00 | 0.00 | 96 | 1020.2 |
| 20260831090637 | 57 | 106 | 1.0 | 2.0 | 0.00 | 0.00 | 0.00 | 96 | 1020.3 |
| 20260831090133 | 57 | 30 | 1.0 | 2.0 | 0.00 | 0.00 | 0.00 | 96 | 1020.1 |
| 20260831085628 | 57 | 37 | 0.0 | 1.0 | 0.00 | 0.00 | 0.00 | 96 | 1020.1 |
| 20260831085124 | 58 | 50 | 0.0 | 1.0 | 0.00 | 0.00 | 0.00 | 96 | 1020.0 |
| 20260831084619 | 58 | 243 | 0.0 | 2.0 | 0.00 | 0.00 | 0.00 | 96 | 1019.9 |
| 20260831084115 | 59 | 66 | 2.0 | 2.0 | 0.00 | 0.00 | 0.00 | 96 | 1019.6 |
| 20260831083611 | 58 | 126 | 1.0 | 2.0 | 0.00 | 0.00 | 0.00 | 96 | 1019.8 |
| 20260831083106 | 57 | 92 | 2.0 | 2.0 | 0.00 | 0.00 | 0.00 | 96 | 1020.2 |
| 20260831082604 | 57 | 119 | 1.0 | 2.0 | 0.00 | 0.00 | 0.00 | 96 | 1020.0 |
| 20260831082100 | 57 | 121 | 0.0 | 2.0 | 0.00 | 0.00 | 0.00 | 96 | 1020.2 |
| 20260831081555 | 57 | 6 | 1.0 | 2.0 | 0.00 | 0.00 | 0.00 | 96 | 1019.8 |
| 20260831081051 | 57 | 129 | 0.0 | 0.0 | 0.00 | 0.00 | 0.00 | 96 | 1020.0 |
| 20260831080546 | 57 | 32 | 0.0 | 1.0 | 0.00 | 0.00 | 0.00 | 96 | 1019.8 |
| 20260831080041 | 58 | 50 | 0.0 | 1.0 | 0.00 | 0.00 | 0.00 | 96 | 1019.6 |
| 20260831075536 | 57 | 115 | 1.0 | 2.0 | 0.00 | 0.00 | 0.00 | 96 | 1020.1 |
| 20260831075032 | 58 | 89 | 0.0 | 0.0 | 0.00 | 0.00 | 0.00 | 96 | 1020.0 |
| 20260831074531 | 58 | 89 | 0.0 | 1.0 | 0.00 | 0.00 | 0.00 | 96 | 1020.1 |
| 20260831074031 | 58 | 89 | 0.0 | 0.0 | 0.00 | 0.00 | 0.00 | 96 | 1020.3 |
| 20260831073526 | 58 | 113 | 0.0 | 0.0 | 0.00 | 0.00 | 0.00 | 96 | 1020.0 |
| 20260831073026 | 58 | 113 | 0.0 | 1.0 | 0.00 | 0.00 | 0.00 | 96 | 1019.9 |
| 20260831072521 | 58 | 111 | 1.0 | 1.0 | 0.00 | 0.00 | 0.00 | 96 | 1020.1 |
| 20260831072018 | 58 | 37 | 0.0 | 1.0 | 0.00 | 0.00 | 0.00 | 96 | 1019.9 |
| 20260831071516 | 58 | 66 | 0.0 | 1.0 | 0.00 | 0.00 | 0.00 | 96 | 1020.0 |
| 20260831071012 | 58 | 142 | 0.0 | 1.0 | 0.00 | 0.00 | 0.00 | 96 | 1020.0 |
| 20260831070510 | 59 | 98 | 0.0 | 1.0 | 0.00 | 0.00 | 0.00 | 96 | 1020.1 |
| 20260831070005 | 59 | 103 | 0.0 | 1.0 | 0.00 | 0.00 | 0.00 | 96 | 1019.9 |
| 20260831065503 | 59 | 32 | 0.0 | 2.0 | 0.00 | 0.00 | 0.00 | 96 | 1020.3 |
| 20260831064957 | 59 | 142 | 0.0 | 1.0 | 0.00 | 0.00 | 0.00 | 96 | 1020.0 |
| 20260831064453 | 59 | 50 | 0.0 | 2.0 | 0.00 | 0.00 | 0.00 | 96 | 1020.1 |
| 20260831063948 | 59 | 55 | 0.0 | 0.0 | 0.00 | 0.00 | 0.00 | 96 | 1019.9 |
| 20260831063443 | 60 | 71 | 0.0 | 2.0 | 0.00 | 0.00 | 0.00 | 96 | 1019.8 |
| 20260831062937 | 60 | 89 | 0.0 | 2.0 | 0.00 | 0.00 | 0.00 | 96 | 1020.1 |
| 20260831062433 | 60 | 119 | 0.0 | 1.0 | 0.00 | 0.00 | 0.00 | 96 | 1020.3 |
| 20260831061932 | 60 | 202 | 0.0 | 2.0 | 0.00 | 0.00 | 0.00 | 96 | 1020.3 |
| 20260831061430 | 60 | 131 | 1.0 | 2.0 | 0.00 | 0.00 | 0.00 | 96 | 1020.2 |
| 20260831060927 | 61 | 113 | 0.0 | 2.0 | 0.00 | 0.00 | 0.00 | 96 | 1020.3 |
| 20260831060427 | 61 | 110 | 0.0 | 0.0 | 0.00 | 0.00 | 0.00 | 96 | 1020.2 |
| 20260831055927 | 61 | 89 | 0.0 | 2.0 | 0.00 | 0.00 | 0.00 | 96 | 1020.4 |
| 20260831055422 | 61 | 121 | 1.0 | 2.0 | 0.00 | 0.00 | 0.00 | 96 | 1020.6 |
| 20260831054917 | 61 | 149 | 0.0 | 1.0 | 0.00 | 0.00 | 0.00 | 96 | 1020.6 |
| 20260831054412 | 61 | 44 | 0.0 | 1.0 | 0.00 | 0.00 | 0.00 | 96 | 1020.7 |
| 20260831053912 | 62 | 53 | 0.0 | 1.0 | 0.00 | 0.00 | 0.00 | 96 | 1020.6 |
| 20260831053409 | 62 | 89 | 1.0 | 2.0 | 0.00 | 0.00 | 0.00 | 96 | 1020.4 |
| 20260831052905 | 62 | 217 | 0.0 | 2.0 | 0.00 | 0.00 | 0.00 | 96 | 1020.7 |
| 20260831052404 | 62 | 147 | 0.0 | 1.0 | 0.00 | 0.00 | 0.00 | 96 | 1020.4 |
| 20260831051903 | 62 | 142 | 0.0 | 0.0 | 0.00 | 0.00 | 0.00 | 96 | 1020.5 |
| 20260831051401 | 62 | 129 | 1.0 | 2.0 | 0.00 | 0.00 | 0.00 | 95 | 1020.6 |
| 20260831050856 | 62 | 139 | 0.0 | 1.0 | 0.00 | 0.00 | 0.00 | 95 | 1020.5 |
| 20260831050350 | 62 | 120 | 0.0 | 2.0 | 0.00 | 0.00 | 0.00 | 95 | 1020.5 |
| 20260831045844 | 62 | 142 | 0.0 | 0.0 | 0.00 | 0.00 | 0.00 | 94 | 1020.5 |
| 20260831045343 | 62 | 142 | 0.0 | 0.0 | 0.00 | 0.00 | 0.00 | 94 | 1020.5 |
| 20260831044838 | 62 | 142 | 0.0 | 0.0 | 0.00 | 0.00 | 0.00 | 94 | 1020.5 |
| 20260831044333 | 63 | 142 | 0.0 | 0.0 | 0.00 | 0.00 | 0.00 | 94 | 1020.5 |
| 20260831043830 | 63 | 122 | 0.0 | 1.0 | 0.00 | 0.00 | 0.00 | 94 | 1020.7 |
| 20260831043328 | 63 | 124 | 0.0 | 2.0 | 0.00 | 0.00 | 0.00 | 94 | 1020.6 |
| 20260831042824 | 63 | 142 | 0.0 | 1.0 | 0.00 | 0.00 | 0.00 | 94 | 1020.4 |
| 20260831042323 | 63 | 89 | 0.0 | 0.0 | 0.00 | 0.00 | 0.00 | 93 | 1020.4 |
| 20260831041819 | 63 | 89 | 0.0 | 0.0 | 0.00 | 0.00 | 0.00 | 93 | 1020.5 |
| 20260831041318 | 63 | 135 | 0.0 | 0.0 | 0.00 | 0.00 | 0.00 | 93 | 1020.7 |
| 20260831040813 | 63 | 130 | 1.0 | 1.0 | 0.00 | 0.00 | 0.00 | 93 | 1020.4 |
| 20260831040312 | 63 | 129 | 0.0 | 0.0 | 0.00 | 0.00 | 0.00 | 93 | 1020.5 |
| 20260831035811 | 63 | 129 | 0.0 | 1.0 | 0.00 | 0.00 | 0.00 | 93 | 1020.4 |
| 20260831035309 | 63 | 117 | 0.0 | 1.0 | 0.00 | 0.00 | 0.00 | 92 | 1020.5 |
| 20260831034804 | 63 | 126 | 1.0 | 1.0 | 0.00 | 0.00 | 0.00 | 92 | 1020.5 |
| 20260831034259 | 64 | 142 | 0.0 | 1.0 | 0.00 | 0.00 | 0.00 | 92 | 1020.6 |
| 20260831033754 | 64 | 135 | 0.0 | 0.0 | 0.00 | 0.00 | 0.00 | 92 | 1020.5 |
| 20260831033249 | 64 | 130 | 0.0 | 2.0 | 0.00 | 0.00 | 0.00 | 92 | 1020.5 |
| 20260831032744 | 64 | 134 | 0.0 | 1.0 | 0.00 | 0.00 | 0.00 | 92 | 1020.6 |
| 20260831032239 | 64 | 143 | 1.0 | 1.0 | 0.00 | 0.00 | 0.00 | 92 | 1020.5 |
| 20260831031734 | 64 | 147 | 0.0 | 1.0 | 0.00 | 0.00 | 0.00 | 92 | 1020.7 |
| 20260831031228 | 64 | 147 | 0.0 | 1.0 | 0.00 | 0.00 | 0.00 | 91 | 1020.6 |
| 20260831030728 | 64 | 150 | 0.0 | 1.0 | 0.00 | 0.00 | 0.00 | 91 | 1020.5 |
| 20260831030226 | 64 | 50 | 0.0 | 0.0 | 0.00 | 0.00 | 0.00 | 91 | 1020.6 |
| 20260831025726 | 64 | 124 | 0.0 | 1.0 | 0.00 | 0.00 | 0.00 | 91 | 1020.6 |
| 20260831025220 | 64 | 69 | 0.0 | 0.0 | 0.00 | 0.00 | 0.00 | 90 | 1020.6 |
| 20260831024717 | 64 | 69 | 0.0 | 1.0 | 0.00 | 0.00 | 0.00 | 90 | 1020.5 |
| 20260831024215 | 64 | 246 | 0.0 | 0.0 | 0.00 | 0.00 | 0.00 | 89 | 1020.7 |
| 20260831023714 | 64 | 246 | 0.0 | 0.0 | 0.00 | 0.00 | 0.00 | 89 | 1020.7 |
| 20260831023213 | 64 | 246 | 0.0 | 0.0 | 0.00 | 0.00 | 0.00 | 89 | 1020.7 |
| 20260831022703 | 64 | 246 | 0.0 | 3.0 | 0.00 | 0.00 | 0.00 | 89 | 1020.6 |
| 20260831022157 | 64 | 142 | 0.0 | 0.0 | 0.00 | 0.00 | 0.00 | 89 | 1020.6 |
| 20260831021656 | 65 | 13 | 0.0 | 0.0 | 0.00 | 0.00 | 0.00 | 89 | 1020.7 |
| 20260831021152 | 65 | 13 | 0.0 | 0.0 | 0.00 | 0.00 | 0.00 | 89 | 1020.8 |
| 20260831020648 | 65 | 244 | 2.0 | 2.0 | 0.00 | 0.00 | 0.00 | 88 | 1020.8 |
| 20260831020148 | 65 | 256 | 0.0 | 3.0 | 0.00 | 0.00 | 0.00 | 88 | 1020.6 |
| 20260831015643 | 65 | 111 | 1.0 | 2.0 | 0.00 | 0.00 | 0.00 | 88 | 1020.6 |
| 20260831015143 | 65 | 223 | 0.0 | 2.0 | 0.00 | 0.00 | 0.00 | 88 | 1020.5 |
| 20260831014638 | 65 | 230 | 0.0 | 0.0 | 0.00 | 0.00 | 0.00 | 88 | 1020.4 |
| 20260831014133 | 65 | 113 | 0.0 | 1.0 | 0.00 | 0.00 | 0.00 | 87 | 1020.7 |
| 20260831013630 | 65 | 202 | 0.0 | 5.0 | 0.00 | 0.00 | 0.00 | 87 | 1020.7 |
| 20260831013129 | 65 | 256 | 1.0 | 2.0 | 0.00 | 0.00 | 0.00 | 87 | 1020.7 |
| 20260831012624 | 65 | 269 | 0.0 | 2.0 | 0.00 | 0.00 | 0.00 | 86 | 1020.5 |
| 20260831012119 | 66 | 247 | 2.0 | 3.0 | 0.00 | 0.00 | 0.00 | 86 | 1020.7 |
| 20260831011618 | 66 | 235 | 3.0 | 4.0 | 0.00 | 0.00 | 0.00 | 86 | 1020.5 |
| 20260831011114 | 66 | 282 | 0.0 | 5.0 | 0.00 | 0.00 | 0.00 | 86 | 1020.2 |
| 20260831010610 | 65 | 235 | 2.0 | 3.0 | 0.00 | 0.00 | 0.00 | 86 | 1020.3 |
| 20260831010106 | 66 | 254 | 2.0 | 3.0 | 0.00 | 0.00 | 0.00 | 86 | 1020.5 |
| 20260831005605 | 65 | 228 | 1.0 | 3.0 | 0.00 | 0.00 | 0.00 | 87 | 1020.3 |
| 20260831005100 | 66 | 230 | 0.0 | 0.0 | 0.00 | 0.00 | 0.00 | 86 | 1020.1 |
| 20260831004556 | 66 | 230 | 0.0 | 1.0 | 0.00 | 0.00 | 0.00 | 85 | 1020.1 |
| 20260831004052 | 66 | 235 | 0.0 | 2.0 | 0.00 | 0.00 | 0.00 | 85 | 1020.1 |
| 20260831003548 | 66 | 309 | 0.0 | 0.0 | 0.00 | 0.00 | 0.00 | 86 | 1020.0 |
| 20260831003043 | 66 | 309 | 0.0 | 3.0 | 0.00 | 0.00 | 0.00 | 85 | 1020.0 |
| 20260831002542 | 65 | 232 | 1.0 | 2.0 | 0.00 | 0.00 | 0.00 | 87 | 1019.8 |
| 20260831002037 | 65 | 32 | 0.0 | 0.0 | 0.00 | 0.00 | 0.00 | 87 | 1019.9 |
| 20260831001533 | 66 | 32 | 0.0 | 0.0 | 0.00 | 0.00 | 0.00 | 86 | 1019.8 |
| 20260831001029 | 66 | 50 | 0.0 | 3.0 | 0.00 | 0.00 | 0.00 | 86 | 1019.4 |
| 20260831000525 | 66 | 50 | 0.0 | 1.0 | 0.00 | 0.00 | 0.00 | 86 | 1019.6 |
| 20260831000024 | 66 | 37 | 0.0 | 0.0 | 0.00 | 0.00 | 0.00 | 85 | 1019.5 |
| 20260830235518 | 66 | 287 | 0.0 | 3.0 | 0.00 | 0.00 | 0.00 | 84 | 1019.4 |
| 20260830235013 | 66 | 285 | 0.0 | 3.0 | 0.00 | 0.00 | 0.00 | 84 | 1019.3 |
| 20260830234508 | 66 | 314 | 0.0 | 1.0 | 0.00 | 0.00 | 0.00 | 84 | 1019.2 |
| 20260830234003 | 66 | 322 | 0.0 | 1.0 | 0.00 | 0.00 | 0.00 | 84 | 1019.5 |
| 20260830233459 | 66 | 248 | 0.0 | 4.0 | 0.00 | 0.00 | 0.00 | 84 | 1019.2 |
| 20260830232954 | 66 | 326 | 0.0 | 2.0 | 0.00 | 0.00 | 0.00 | 85 | 1019.5 |
| 20260830232450 | 67 | 322 | 0.0 | 1.0 | 0.00 | 0.00 | 0.00 | 84 | 1019.5 |
| 20260830231947 | 67 | 232 | 3.0 | 4.0 | 0.00 | 0.00 | 0.00 | 82 | 1019.4 |
| 20260830231442 | 67 | 234 | 2.0 | 3.0 | 0.00 | 0.00 | 0.00 | 82 | 1019.2 |
| 20260830230941 | 67 | 252 | 1.0 | 3.0 | 0.00 | 0.00 | 0.00 | 82 | 1019.4 |
| 20260830230437 | 67 | 229 | 1.0 | 2.0 | 0.00 | 0.00 | 0.00 | 83 | 1019.2 |
| 20260830225936 | 67 | 246 | 0.0 | 2.0 | 0.00 | 0.00 | 0.00 | 82 | 1019.3 |
| 20260830225432 | 67 | 249 | 2.0 | 3.0 | 0.00 | 0.00 | 0.00 | 82 | 1019.4 |
| 20260830224932 | 67 | 230 | 0.0 | 1.0 | 0.00 | 0.00 | 0.00 | 82 | 1019.4 |
| 20260830224430 | 68 | 249 | 0.0 | 2.0 | 0.00 | 0.00 | 0.00 | 82 | 1019.4 |
| 20260830223927 | 68 | 230 | 0.0 | 3.0 | 0.00 | 0.00 | 0.00 | 82 | 1019.3 |
| 20260830223423 | 68 | 238 | 2.0 | 3.0 | 0.00 | 0.00 | 0.00 | 82 | 1019.4 |
| 20260830222922 | 68 | 235 | 0.0 | 2.0 | 0.00 | 0.00 | 0.00 | 81 | 1019.3 |
| 20260830222418 | 68 | 243 | 1.0 | 1.0 | 0.00 | 0.00 | 0.00 | 81 | 1019.2 |
| 20260830221914 | 68 | 259 | 2.0 | 3.0 | 0.00 | 0.00 | 0.00 | 81 | 1019.1 |
| 20260830221410 | 68 | 249 | 0.0 | 0.0 | 0.00 | 0.00 | 0.00 | 82 | 1019.4 |
| 20260830220905 | 68 | 299 | 0.0 | 2.0 | 0.00 | 0.00 | 0.00 | 82 | 1019.3 |
| 20260830220405 | 68 | 283 | 0.0 | 2.0 | 0.00 | 0.00 | 0.00 | 82 | 1019.2 |
| 20260830215902 | 68 | 249 | 0.0 | 1.0 | 0.00 | 0.00 | 0.00 | 84 | 1019.3 |
| 20260830215402 | 68 | 142 | 0.0 | 1.0 | 0.00 | 0.00 | 0.00 | 84 | 1019.1 |
| 20260830214857 | 68 | 173 | 0.0 | 1.0 | 0.00 | 0.00 | 0.00 | 84 | 1018.9 |
| 20260830214352 | 68 | 157 | 0.0 | 0.0 | 0.00 | 0.00 | 0.00 | 83 | 1019.2 |
| 20260830213847 | 68 | 137 | 2.0 | 2.0 | 0.00 | 0.00 | 0.00 | 82 | 1019.1 |
| 20260830213342 | 68 | 150 | 0.0 | 1.0 | 0.00 | 0.00 | 0.00 | 81 | 1019.1 |
| 20260830212838 | 68 | 153 | 1.0 | 2.0 | 0.00 | 0.00 | 0.00 | 82 | 1019.3 |
| 20260830212333 | 68 | 229 | 0.0 | 1.0 | 0.00 | 0.00 | 0.00 | 81 | 1019.4 |
| 20260830211832 | 68 | 245 | 0.0 | 2.0 | 0.00 | 0.00 | 0.00 | 80 | 1019.4 |
| 20260830211327 | 68 | 205 | 0.0 | 0.0 | 0.00 | 0.00 | 0.00 | 80 | 1019.4 |
| 20260830210823 | 69 | 236 | 1.0 | 3.0 | 0.00 | 0.00 | 0.00 | 79 | 1019.3 |
| 20260830210322 | 69 | 252 | 2.0 | 4.0 | 0.00 | 0.00 | 0.00 | 78 | 1019.6 |
| 20260830205820 | 69 | 234 | 0.0 | 2.0 | 0.00 | 0.00 | 0.00 | 78 | 1019.3 |
| 20260830205319 | 69 | 256 | 0.0 | 2.0 | 0.00 | 0.00 | 0.00 | 78 | 1019.2 |
| 20260830204815 | 69 | 257 | 0.0 | 1.0 | 0.00 | 0.00 | 0.00 | 79 | 1019.4 |
| 20260830204314 | 69 | 269 | 0.0 | 3.0 | 0.00 | 0.00 | 0.00 | 78 | 1019.2 |
| 20260830203810 | 69 | 207 | 0.0 | 1.0 | 0.00 | 0.00 | 0.00 | 80 | 1019.2 |
| 20260830203306 | 68 | 156 | 0.0 | 1.0 | 0.00 | 0.00 | 0.00 | 80 | 1019.3 |
| 20260830202805 | 68 | 212 | 1.0 | 2.0 | 0.00 | 0.00 | 0.00 | 80 | 1019.4 |
| 20260830202300 | 68 | 318 | 0.0 | 2.0 | 0.00 | 0.00 | 0.00 | 79 | 1019.3 |
| 20260830201755 | 68 | 304 | 0.0 | 1.0 | 0.00 | 0.00 | 0.00 | 80 | 1019.4 |
| 20260830201249 | 68 | 344 | 0.0 | 1.0 | 0.00 | 0.00 | 0.00 | 80 | 1019.2 |
| 20260830200745 | 68 | 352 | 1.0 | 2.0 | 0.00 | 0.00 | 0.00 | 79 | 1019.2 |
| 20260830200244 | 68 | 315 | 1.0 | 2.0 | 0.00 | 0.00 | 0.00 | 79 | 1019.2 |
| 20260830195740 | 68 | 352 | 0.0 | 4.0 | 0.00 | 0.00 | 0.00 | 78 | 1019.2 |
| 20260830195238 | 69 | 348 | 1.0 | 5.0 | 0.00 | 0.00 | 0.00 | 78 | 1019.5 |
| 20260830194737 | 69 | 332 | 2.0 | 2.0 | 0.00 | 0.00 | 0.00 | 76 | 1019.1 |
| 20260830194232 | 69 | 318 | 2.0 | 4.0 | 0.00 | 0.00 | 0.00 | 75 | 1019.2 |
| 20260830193731 | 70 | 13 | 1.0 | 5.0 | 0.00 | 0.00 | 0.00 | 76 | 1019.1 |
| 20260830193226 | 70 | 276 | 2.0 | 4.0 | 0.00 | 0.00 | 0.00 | 72 | 1019.1 |
| 20260830192722 | 71 | 316 | 3.0 | 3.0 | 0.00 | 0.00 | 0.00 | 72 | 1019.3 |
| 20260830192217 | 71 | 276 | 2.0 | 4.0 | 0.00 | 0.00 | 0.00 | 72 | 1019.2 |
| 20260830191713 | 71 | 269 | 2.0 | 4.0 | 0.00 | 0.00 | 0.00 | 72 | 1019.1 |
| 20260830191212 | 72 | 322 | 3.0 | 5.0 | 0.00 | 0.00 | 0.00 | 75 | 1019.2 |
| 20260830190708 | 73 | 239 | 3.0 | 6.0 | 0.00 | 0.00 | 0.00 | 74 | 1019.1 |
| 20260830190203 | 73 | 238 | 1.0 | 3.0 | 0.00 | 0.00 | 0.00 | 74 | 1019.0 |
| 20260830185701 | 74 | 256 | 2.0 | 3.0 | 0.00 | 0.00 | 0.00 | 72 | 1018.9 |
| 20260830185157 | 74 | 183 | 2.0 | 5.0 | 0.00 | 0.00 | 0.00 | 73 | 1019.0 |
| 20260830184656 | 74 | 243 | 3.0 | 4.0 | 0.00 | 0.00 | 0.00 | 72 | 1019.1 |
| 20260830184155 | 74 | 178 | 2.0 | 5.0 | 0.00 | 0.00 | 0.00 | 73 | 1019.0 |
| 20260830183651 | 75 | 211 | 0.0 | 6.0 | 0.00 | 0.00 | 0.00 | 69 | 1019.1 |
| 20260830183146 | 75 | 242 | 3.0 | 6.0 | 0.00 | 0.00 | 0.00 | 68 | 1019.1 |
| 20260830182641 | 75 | 248 | 4.0 | 7.0 | 0.00 | 0.00 | 0.00 | 67 | 1019.1 |
| 20260830182137 | 74 | 242 | 4.0 | 5.0 | 0.00 | 0.00 | 0.00 | 69 | 1019.2 |
| 20260830181633 | 74 | 209 | 2.0 | 4.0 | 0.00 | 0.00 | 0.00 | 70 | 1019.3 |
| 20260830181133 | 74 | 196 | 1.0 | 6.0 | 0.00 | 0.00 | 0.00 | 70 | 1018.9 |
| 20260830180632 | 75 | 201 | 2.0 | 5.0 | 0.00 | 0.00 | 0.00 | 70 | 1019.1 |
| 20260830180127 | 75 | 159 | 2.0 | 6.0 | 0.00 | 0.00 | 0.00 | 68 | 1019.2 |
| 20260830175625 | 75 | 135 | 3.0 | 5.0 | 0.00 | 0.00 | 0.00 | 67 | 1019.1 |
| 20260830175121 | 76 | 183 | 1.0 | 7.0 | 0.00 | 0.00 | 0.00 | 66 | 1019.4 |
| 20260830174616 | 75 | 249 | 2.0 | 5.0 | 0.00 | 0.00 | 0.00 | 66 | 1019.3 |
| 20260830174112 | 75 | 249 | 3.0 | 6.0 | 0.00 | 0.00 | 0.00 | 67 | 1019.4 |
| 20260830173607 | 75 | 250 | 0.0 | 4.0 | 0.00 | 0.00 | 0.00 | 68 | 1019.4 |
| 20260830173102 | 75 | 246 | 3.0 | 8.0 | 0.00 | 0.00 | 0.00 | 66 | 1019.4 |
| 20260830172559 | 76 | 267 | 2.0 | 6.0 | 0.00 | 0.00 | 0.00 | 66 | 1019.5 |
| 20260830172054 | 76 | 243 | 6.0 | 6.0 | 0.00 | 0.00 | 0.00 | 64 | 1019.4 |
| 20260830171549 | 76 | 299 | 0.0 | 6.0 | 0.00 | 0.00 | 0.00 | 66 | 1019.5 |
| 20260830171044 | 76 | 249 | 6.0 | 7.0 | 0.00 | 0.00 | 0.00 | 64 | 1019.4 |